I2HLY-3 Weather Reports


Display with metric or nautical units.
time (UTC)temp
F
wind
direction
speed
MPH
gust
MPH
rain 1hr
in
rain 24hr
in
rain mn
in
humidity
%
barometer
mb
20260904021817 63 272 0.0 0.0 0.00 0.00 0.00 92 1017.2
20260904020324 63 272 0.0 1.0 0.00 0.00 0.00 91 1017.0
20260904014817 63 272 0.0 0.0 0.00 0.00 0.00 91 1017.1
20260904013328 64 272 0.0 0.0 0.00 0.00 0.00 91 1017.1
20260904011813 64 272 0.0 0.0 0.00 0.00 0.00 90 1017.0
20260904010325 64 273 0.0 0.0 0.00 0.00 0.00 91 1017.1
20260904004815 64 272 0.0 0.0 0.00 0.00 0.00 90 1017.0
20260904003322 64 272 0.0 0.0 0.00 0.00 0.00 90 1017.0
20260904001813 65 273 0.0 0.0 0.00 0.00 0.00 90 1017.2
20260904000318 65 272 0.0 0.0 0.00 0.00 0.00 89 1017.3
20260903234826 65 272 0.0 0.0 0.00 0.00 0.00 89 1017.3
20260903233320 66 272 0.0 0.0 0.00 0.00 0.00 89 1017.4
20260903231815 66 272 0.0 0.0 0.00 0.00 0.00 89 1017.2
20260903230325 66 272 0.0 0.0 0.00 0.00 0.00 88 1017.2
20260903224815 66 272 0.0 0.0 0.00 0.00 0.00 89 1017.1
20260903223327 66 272 0.0 0.0 0.00 0.00 0.00 88 1017.2
20260903221814 67 272 0.0 0.0 0.00 0.00 0.00 88 1017.3
20260903220314 67 272 0.0 0.0 0.00 0.00 0.00 87 1017.3
20260903214824 67 272 0.0 0.0 0.00 0.00 0.00 87 1017.3
20260903213327 68 272 0.0 0.0 0.00 0.00 0.00 86 1017.2
20260903211828 68 273 0.0 0.0 0.00 0.00 0.00 86 1017.2
20260903204825 69 271 0.0 0.0 0.00 0.00 0.00 85 1017.1
20260903203314 70 271 0.0 2.0 0.00 0.00 0.00 83 1016.9
20260903201822 71 271 0.0 0.0 0.00 0.00 0.00 82 1016.9
20260903194819 72 271 1.0 2.0 0.00 0.00 0.00 80 1016.9
20260903193329 72 271 0.0 2.0 0.00 0.00 0.00 76 1016.7
20260903191819 73 271 0.0 2.0 0.00 0.00 0.00 74 1016.6
20260903184812 76 271 0.0 1.0 0.00 0.00 0.00 66 1016.3
20260903183317 77 270 0.0 1.0 0.00 0.00 0.00 63 1016.1
20260903181821 79 270 0.0 0.0 0.00 0.00 0.00 61 1015.9
20260903180312 80 270 0.0 0.0 0.00 0.00 0.00 63 1015.9
20260903174818 83 270 0.0 1.0 0.00 0.00 0.00 57 1015.7
20260903173323 85 270 0.0 2.0 0.00 0.00 0.00 47 1015.6
20260903171818 86 269 1.0 3.0 0.00 0.00 0.00 46 1015.7
20260903163328 89 300 2.0 6.0 0.00 0.00 0.00 43 1015.7
20260903161830 89 248 2.0 8.0 0.00 0.00 0.00 41 1015.6
20260903160324 89 291 2.0 7.0 0.00 0.00 0.00 41 1015.6
20260903153317 88 234 3.0 9.0 0.00 0.00 0.00 44 1015.6
20260903151829 88 175 3.0 7.0 0.00 0.00 0.00 46 1015.6
20260903150319 89 220 3.0 7.0 0.00 0.00 0.00 45 1015.9
20260903144828 88 237 2.0 6.0 0.00 0.00 0.00 45 1015.9
20260903141827 88 254 2.0 6.0 0.00 0.00 0.00 47 1016.0
20260903134817 88 182 5.0 8.0 0.00 0.00 0.00 46 1016.4
20260903133325 87 167 4.0 8.0 0.00 0.00 0.00 49 1016.5
20260903131728 87 186 2.0 7.0 0.00 0.00 0.00 48 1016.7
20260903130231 87 169 3.0 7.0 0.00 0.00 0.00 51 1016.9
20260903123233 87 178 5.0 8.0 0.00 0.00 0.00 51 1017.1
20260903121720 87 196 4.0 9.0 0.00 0.00 0.00 53 1017.3
20260903120234 87 63 2.0 7.0 0.00 0.00 0.00 52 1017.5
20260903113223 88 233 2.0 5.0 0.00 0.00 0.00 50 1017.5
20260903111735 87 222 4.0 6.0 0.00 0.00 0.00 52 1017.4
20260903110223 87 186 2.0 9.0 0.00 0.00 0.00 52 1017.7
20260903104728 87 150 4.0 8.0 0.00 0.00 0.00 55 1018.0
20260903103232 86 147 3.0 7.0 0.00 0.00 0.00 54 1018.2
20260903100234 86 86 3.0 6.0 0.00 0.00 0.00 54 1018.5
20260903094735 86 149 2.0 9.0 0.00 0.00 0.00 53 1018.4
20260903093232 85 140 2.0 4.0 0.00 0.00 0.00 53 1018.4
20260903091734 85 154 2.0 9.0 0.00 0.00 0.00 55 1018.5
20260903090226 84 189 3.0 9.0 0.00 0.00 0.00 55 1018.5
20260903084727 83 99 2.0 7.0 0.00 0.00 0.00 53 1018.4
20260903083232 83 94 3.0 7.0 0.00 0.00 0.00 55 1018.5
20260903081732 83 97 3.0 7.0 0.00 0.00 0.00 55 1018.6
20260903080236 83 94 2.0 6.0 0.00 0.00 0.00 58 1018.5
20260903074721 81 319 1.0 2.0 0.00 0.00 0.00 66 1018.2
20260903073231 80 319 0.0 3.0 0.00 0.00 0.00 66 1018.1
20260903071719 78 319 1.0 2.0 0.00 0.00 0.00 71 1018.2
20260903070221 77 319 0.0 3.0 0.00 0.00 0.00 74 1018.1
20260903064727 75 319 0.0 3.0 0.00 0.00 0.00 77 1018.1
20260903063221 73 319 1.0 2.0 0.00 0.00 0.00 81 1018.1
20260903061736 71 319 0.0 1.0 0.00 0.00 0.00 88 1018.0
20260903060235 67 318 0.0 0.0 0.00 0.00 0.00 93 1017.9
20260903054719 66 319 0.0 0.0 0.00 0.00 0.00 94 1017.7
20260903053237 64 319 0.0 2.0 0.00 0.00 0.00 94 1017.7
20260903051725 62 315 1.0 2.0 0.00 0.00 0.00 94 1017.6
20260903050233 62 315 0.0 0.0 0.00 0.00 0.00 94 1017.5
20260903044727 62 315 0.0 0.0 0.00 0.00 0.00 94 1017.3
20260903043221 62 315 0.0 1.0 0.00 0.00 0.00 94 1017.2
20260903041725 63 315 0.0 0.0 0.00 0.00 0.00 94 1017.0
20260903040223 63 315 0.0 3.0 0.00 0.00 0.00 94 1017.0
20260903034727 63 315 0.0 0.0 0.00 0.00 0.00 94 1017.0
20260903033224 63 315 0.0 2.0 0.00 0.00 0.00 93 1016.8
20260903031738 63 315 0.0 0.0 0.00 0.00 0.00 93 1016.8
20260903030226 63 315 0.0 1.0 0.00 0.00 0.00 94 1016.8
20260903024732 63 315 0.0 0.0 0.00 0.00 0.00 94 1016.8
20260903023223 63 315 0.0 0.0 0.00 0.00 0.00 93 1016.7